EW7605 Weather Reports


Display with metric or nautical units.
time (UTC)temp
F
wind
direction
speed
MPH
gust
MPH
rain 1hr
in
rain 24hr
in
rain mn
in
humidity
%
barometer
mb
20260508004554 51 103 0.0 0.0 0.00 0.19 0.13 52 1005.2
20260508003047 52 101 0.0 3.0 0.00 0.19 0.13 50 1005.0
20260508001549 53 98 0.0 2.0 0.00 0.19 0.13 45 1004.7
20260508000045 54 78 0.0 3.0 0.00 0.19 0.13 45 1004.6
20260507234545 55 84 0.0 3.0 0.00 0.19 0.13 45 1004.5
20260507233057 56 160 0.0 2.0 0.00 0.19 0.13 42 1004.3
20260507231543 57 181 0.0 2.0 0.00 0.19 0.13 42 1004.0
20260507230043 58 87 0.0 6.0 0.00 0.19 0.13 37 1003.8
20260507224553 59 51 1.0 4.0 0.00 0.21 0.13 35 1003.6
20260507223042 61 69 1.0 4.0 0.00 0.21 0.13 34 1003.4
20260507221541 61 68 5.0 14.0 0.00 0.21 0.13 32 1003.3
20260507220040 61 20 1.0 11.0 0.00 0.21 0.13 34 1003.2
20260507214541 62 355 2.0 10.0 0.00 0.27 0.13 30 1003.2
20260507213041 63 330 2.0 10.0 0.00 0.27 0.13 31 1003.1
20260507211539 62 23 3.0 11.0 0.00 0.27 0.13 32 1003.1
20260507210044 62 350 7.0 15.0 0.00 0.27 0.13 30 1003.0
20260507204532 62 297 7.0 19.0 0.00 0.33 0.13 29 1002.9
20260507203027 64 9 2.0 13.0 0.00 0.33 0.13 33 1002.7
20260507201522 64 344 4.0 12.0 0.00 0.33 0.13 33 1002.7
20260507200018 63 30 5.0 16.0 0.00 0.33 0.13 36 1002.7
20260507194514 64 328 5.0 12.0 0.00 0.46 0.13 31 1002.7
20260507193014 63 307 4.0 13.0 0.00 0.46 0.13 34 1002.9
20260507191507 63 351 3.0 11.0 0.00 0.46 0.13 40 1003.1
20260507190101 63 46 4.0 18.0 0.00 0.46 0.13 44 1002.9
20260507184556 62 273 7.0 13.0 0.00 0.50 0.13 45 1003.0
20260507183051 62 5 1.0 18.0 0.00 0.50 0.13 51 1003.1
20260507181553 62 344 2.0 15.0 0.00 0.50 0.13 46 1003.1
20260507180043 62 331 4.0 12.0 0.00 0.50 0.13 48 1003.1
20260507174547 62 287 2.0 11.0 0.00 0.50 0.13 51 1003.2
20260507173049 61 24 7.0 13.0 0.00 0.50 0.13 49 1003.5
20260507171540 62 302 4.0 17.0 0.00 0.50 0.13 48 1003.5
20260507170024 62 16 6.0 19.0 0.00 0.50 0.13 52 1003.5
20260507164522 62 47 6.0 11.0 0.00 0.50 0.13 48 1003.6
20260507163014 60 325 0.0 10.0 0.00 0.50 0.13 56 1003.8
20260507161510 59 360 1.0 9.0 0.00 0.50 0.13 59 1004.0
20260507160008 59 271 4.0 11.0 0.00 0.50 0.13 55 1004.4
20260507154502 60 5 2.0 9.0 0.00 0.50 0.13 55 1004.5
20260507153101 59 332 5.0 11.0 0.00 0.50 0.13 55 1004.6
20260507151559 59 13 3.0 6.0 0.00 0.50 0.13 59 1004.6
20260507150057 60 142 1.0 6.0 0.00 0.50 0.13 61 1004.6
20260507144548 60 79 1.0 5.0 0.00 0.50 0.13 59 1004.9
20260507143043 58 238 1.0 11.0 0.00 0.50 0.13 61 1005.0
20260507141535 58 342 3.0 9.0 0.00 0.50 0.13 62 1005.2
20260507140030 56 355 1.0 8.0 0.00 0.50 0.13 68 1005.4
20260507134528 57 355 2.0 8.0 0.00 0.50 0.13 71 1005.5
20260507133022 55 29 1.0 8.0 0.00 0.50 0.13 72 1005.5
20260507131526 54 28 2.0 10.0 0.00 0.50 0.13 71 1005.5
20260507130013 54 30 3.0 6.0 0.00 0.50 0.13 43 1005.6
20260507124516 53 46 1.0 5.0 0.00 0.50 0.13 1 1005.8
20260507123010 51 329 1.0 8.0 0.00 0.50 0.13 1 1005.7
20260507121508 51 329 0.0 3.0 0.00 0.50 0.13 1 1005.7
20260507120025 49 57 1.0 5.0 0.00 0.50 0.13 1 1005.9
20260507114508 48 347 0.0 2.0 0.00 0.50 0.13 1 1005.6
20260507113024 47 345 0.0 2.0 0.00 0.50 0.13 1 1005.9
20260507111501 47 355 0.0 2.0 0.00 0.50 0.13 1 1006.1
20260507110104 46 18 0.0 1.0 0.00 0.50 0.13 1 1005.8
20260507104553 46 30 0.0 2.0 0.00 0.50 0.13 1 1006.4
20260507103048 46 33 0.0 2.0 0.00 0.50 0.13 1 1006.2
20260507101544 46 33 0.0 2.0 0.00 0.50 0.13 1 1006.2
20260507100041 46 51 1.0 3.0 0.00 0.50 0.13 1 1006.1
20260507094535 46 52 0.0 1.0 0.00 0.50 0.13 1 1005.3
20260507093030 46 52 0.0 1.0 0.00 0.50 0.13 1 1005.0
20260507091527 46 52 0.0 1.0 0.00 0.50 0.13 1 1005.1
20260507090022 47 52 0.0 1.0 0.00 0.50 0.13 1 1005.6
20260507084517 47 52 0.0 2.0 0.00 0.50 0.13 1 1005.8
20260507083014 48 78 1.0 2.0 0.00 0.50 0.13 1 1005.1
20260507081508 48 71 0.0 0.0 0.00 0.50 0.13 1 1005.6
20260507080005 48 75 0.0 0.0 0.00 0.50 0.13 1 1005.1
20260507074606 48 75 0.0 0.0 0.00 0.50 0.13 1 1005.0
20260507073133 49 75 0.0 0.0 0.00 0.50 0.13 1 1005.1
20260507071551 49 75 0.0 0.0 0.00 0.50 0.13 1 1004.9
20260507070047 49 75 0.0 0.0 0.00 0.50 0.13 1 1004.7
20260507064557 49 75 0.0 0.0 0.00 0.50 0.13 1 1004.4
20260507063046 49 75 0.0 1.0 0.00 0.50 0.13 1 1004.4
20260507061538 50 78 0.0 2.0 0.01 0.50 0.13 1 1004.1
20260507060029 50 79 0.0 2.0 0.01 0.50 0.13 1 1004.2
20260507054525 51 78 0.0 1.0 0.02 0.50 0.13 1 1004.2
20260507053024 51 207 0.0 3.0 0.05 0.50 0.13 1 1004.1
20260507051516 52 110 0.0 2.0 0.09 0.49 0.12 1 1004.1
20260507050011 52 44 0.0 2.0 0.12 0.49 0.12 1 1003.9
20260507044509 52 290 0.0 3.0 0.12 0.48 0.11 1 1004.0
20260507043003 53 71 2.0 8.0 0.09 0.45 0.08 1 1003.9
20260507041608 53 21 0.0 3.0 0.05 0.40 0.03 1 1004.2
20260507040105 53 66 0.0 1.0 0.02 0.37 0.00 1 1003.5
20260507034608 53 66 1.0 5.0 0.01 0.36 0.36 1 1003.4
20260507033102 53 249 0.0 3.0 0.01 0.36 0.36 1 1002.9
20260507031541 53 242 2.0 6.0 0.00 0.35 0.35 1 1003.0
20260507030038 52 231 1.0 8.0 0.00 0.35 0.35 1 1002.8
20260507024533 52 211 2.0 7.0 0.00 0.35 0.35 1 1003.2
20260507023029 52 309 3.0 9.0 0.01 0.35 0.35 1 1003.3
20260507021525 52 261 4.0 10.0 0.02 0.35 0.35 1 1003.4
20260507020021 52 223 2.0 10.0 0.03 0.35 0.35 1 1003.6
20260507014520 52 198 6.0 11.0 0.04 0.35 0.35 1 1003.8
20260507013014 52 294 4.0 9.0 0.03 0.34 0.34 1 1003.9
20260507011508 52 294 4.0 11.0 0.02 0.33 0.33 1 1004.0
20260507010012 52 209 5.0 10.0 0.01 0.32 0.32 1 1004.1